Wind_Speed
12 15 19 23 25 28 29 29 29 30 30 30 33 32 29 32 33 33 33 32 31 28 26 23 22 22 21 21 24 28 25 28 27 27 24 23 22 26 29 31 36 33 32
19 21 24 27 28 30 29 28 27 27 28 29 29 32 33 32 34 35 34 33 34 33 30 27 26 25 25 23 23 28 30 31 31 29 28 27 23 24 24 28 35 38 35
24 25 25 27 29 29 30 29 29 28 27 26 27 27 28 32 33 33 34 34 34 33 32 30 29 28 28 28 26 29 33 35 34 32 32 31 27 25 27 26 28 36 41
26 27 30 31 31 30 30 31 32 31 30 29 28 28 28 30 31 32 33 32 33 34 34 33 33 32 30 31 30 31 32 33 35 35 35 35 34 29 29 30 31 29 37
29 30 31 32 32 31 31 32 32 32 32 30 31 30 28 29 30 30 31 33 34 35 36 36 37 37 35 33 34 35 36 35 35 34 33 35 36 34 30 32 30 30 30
32 33 32 32 32 31 31 31 31 32 32 31 31 30 31 30 31 32 33 34 36 37 38 40 40 40 41 39 36 39 40 38 38 37 36 35 36 37 35 36 36 35 30
32 32 32 32 32 32 32 32 32 32 32 33 33 33 33 33 35 36 37 39 40 41 43 44 44 43 42 42 40 38 42 42 41 41 40 39 38 38 38 37 37 35 36
34 33 33 33 33 33 32 33 34 36 36 37 37 38 38 38 39 40 41 42 44 45 45 45 44 44 45 44 44 41 40 45 44 44 43 43 42 42 38 38 38 36 37
34 33 33 33 33 34 35 36 37 37 38 38 38 39 39 40 41 42 42 43 44 43 43 43 42 43 44 45 46 43 42 42 48 47 44 43 43 42 42 39 39 39 38
32 32 32 33 35 36 37 37 37 37 37 38 38 39 40 42 43 43 43 42 43 44 44 43 42 41 43 44 45 46 44 43 46 48 45 43 44 44 43 43 43 41 40
31 32 34 35 36 36 36 35 35 36 36 37 37 38 39 40 41 42 43 44 45 46 46 45 43 42 42 42 42 43 45 46 45 47 47 45 43 44 43 43 42 42 41
33 35 35 35 36 36 36 35 35 35 36 38 39 42 44 46 47 47 47 47 46 45 46 48 48 47 45 44 43 43 44 44 46 46 46 45 44 44 44 43 44 45 43
35 36 35 36 35 34 34 34 35 37 39 41 43 44 44 44 46 47 47 47 46 46 47 47 48 50 50 49 47 46 45 45 47 47 47 46 46 47 47 47 46 46 47
36 36 35 34 32 32 33 36 38 41 41 40 40 40 41 42 44 45 47 49 49 48 46 45 45 48 50 50 52 50 48 48 48 47 49 49 48 47 46 47 48 48 48
35 34 33 32 32 35 37 40 40 38 39 40 43 44 45 46 46 45 45 46 46 45 44 44 44 44 47 49 49 51 51 50 49 48 47 48 49 50 49 50 50 49 48
33 31 30 31 34 37 39 37 36 37 39 41 43 45 47 48 48 46 44 43 42 41 40 39 39 39 40 42 45 47 49 50 50 49 49 48 48 50 50 51 51 51 51
30 30 29 33 36 37 34 33 35 37 39 41 43 43 43 44 45 44 40 37 33 32 32 32 33 32 33 37 39 42 44 46 48 47 48 48 48 49 51 51 52 53 53
29 28 32 34 36 32 30 32 34 36 38 40 41 40 41 42 44 42 40 36 33 32 31 30 29 29 29 27 28 31 37 42 43 45 45 44 43 47 49 50 49 50 52
27 30 33 36 32 30 31 33 36 39 39 39 40 40 41 42 42 40 39 36 31 28 28 30 27 26 26 27 29 29 30 35 38 42 42 42 44 47 46 46 48 48 49
28 31 34 32 29 30 31 33 35 36 37 38 39 39 41 42 40 40 37 37 34 30 31 30 28 28 26 26 25 25 27 30 33 36 37 39 40 45 43 43 45 44 47
29 32 33 28 28 29 30 32 35 36 36 36 37 40 40 40 38 37 36 34 32 30 30 29 28 28 27 27 27 25 24 23 27 31 34 36 38 40 41 41 37 42 44
29 33 32 28 28 30 31 33 35 36 36 36 38 39 39 40 40 38 34 32 32 30 28 27 27 28 26 26 24 24 24 21 23 26 26 31 38 37 38 41 44 43 43
30 33 31 28 28 29 32 34 35 36 38 40 40 38 39 39 39 39 37 34 32 32 29 27 26 26 26 26 24 22 21 22 19 23 27 26 33 37 38 38 42 40 39
31 30 27 28 29 30 33 35 37 38 39 39 40 39 38 38 39 40 38 36 34 33 31 30 27 26 26 25 25 24 23 22 22 19 21 32 28 32 33 38 40 38 38
31 28 27 28 28 30 33 35 37 38 40 40 38 38 37 37 38 39 38 37 36 36 34 33 31 27 26 26 27 27 26 24 24 23 21 21 29 30 35 37 38 43 42
30 29 29 29 29 30 32 34 36 38 40 39 38 37 37 37 38 38 38 38 38 37 36 35 34 32 30 28 26 26 27 27 27 26 25 24 22 24 30 33 37 35 36
Wind_Direction
328 322 308 305 305 303 302 300 298 296 294 288 280 276 277 274 272 272 273 273 275 276 278 283 288 288 283 274 265 260 262 264 268 266 260 259 255 248 246 241 239 248 250
314 306 302 303 304 305 300 298 297 294 292 290 283 279 277 273 267 267 268 269 270 272 275 278 280 285 280 274 264 258 267 263 267 265 270 264 258 253 247 241 236 240 247
299 297 304 306 307 308 308 307 304 298 294 287 282 276 274 275 273 269 267 267 266 269 273 277 280 281 277 272 262 258 256 257 259 259 260 265 258 256 255 254 241 242 241
303 303 306 311 313 313 312 310 306 303 300 296 289 284 279 275 274 273 272 270 268 271 273 277 281 282 277 271 264 258 256 256 256 254 254 256 260 255 250 250 255 257 242
308 309 313 316 313 311 310 307 305 303 298 294 291 288 284 281 278 275 272 272 272 273 275 278 280 281 279 272 265 261 258 254 253 254 252 251 252 254 246 244 251 255 254
312 314 311 309 311 310 307 306 304 302 300 298 296 293 290 288 284 280 276 276 275 275 276 277 278 277 276 273 265 258 258 255 252 251 252 253 250 249 248 246 245 247 247
308 309 310 310 309 308 309 309 308 306 305 303 301 297 294 291 287 284 282 279 278 277 276 276 276 272 269 268 269 264 257 254 254 255 251 251 251 247 246 250 249 248 247
313 311 309 308 308 310 311 310 309 307 304 301 298 295 292 290 287 284 283 281 279 278 276 273 271 269 266 263 264 263 263 255 252 252 253 248 246 247 245 244 246 244 246
310 309 309 311 313 311 310 308 305 303 301 298 296 295 293 290 288 285 283 281 279 277 274 272 270 265 263 261 261 260 262 263 255 250 252 252 251 246 247 247 248 245 243
314 314 314 315 313 312 311 308 306 303 300 297 294 293 291 290 287 285 283 280 279 278 276 274 271 265 263 260 258 258 255 257 257 253 252 251 249 249 248 244 246 248 247
316 315 316 314 313 312 311 308 305 303 303 302 301 299 297 294 291 288 285 281 278 275 273 271 269 266 264 262 259 257 255 253 252 252 253 251 249 251 251 247 243 243 247
316 317 316 314 313 312 311 310 310 309 308 307 305 302 300 298 295 291 288 284 280 277 275 271 267 265 263 261 259 257 254 254 252 252 251 251 249 250 249 248 244 241 242
316 315 314 314 313 312 312 312 311 310 308 307 306 305 305 304 303 301 298 294 290 285 279 273 271 267 262 261 258 256 255 252 251 250 251 250 249 250 251 251 249 248 245
316 315 314 313 313 314 314 313 312 312 313 314 313 312 310 308 305 302 299 297 295 292 287 280 273 269 268 263 258 256 253 252 251 250 249 249 250 248 248 248 250 250 247
315 314 314 316 317 317 316 317 319 320 321 321 320 319 317 313 310 307 304 299 295 292 289 287 282 275 268 265 261 257 253 251 250 249 249 248 248 249 248 249 251 252 250
313 315 316 317 317 318 320 321 322 325 325 324 323 323 321 321 321 316 309 302 297 292 289 288 286 283 277 268 262 257 254 252 250 249 248 248 249 247 247 248 249 249 251
315 315 315 317 319 321 323 325 327 328 328 328 328 329 330 328 327 323 319 315 310 304 300 295 292 286 281 278 272 263 255 251 249 249 248 248 247 247 247 246 246 246 248
315 316 318 320 323 322 325 328 330 332 333 332 332 332 330 332 336 332 329 323 322 315 309 305 300 300 296 290 281 272 261 254 250 248 248 247 250 250 247 248 247 247 246
316 319 321 325 323 325 330 333 333 336 337 335 332 330 329 331 334 335 332 324 321 321 314 311 307 306 300 301 292 287 269 255 250 247 246 245 240 243 246 244 246 246 246
321 321 324 324 325 328 332 333 336 337 335 333 332 331 330 330 332 334 334 330 321 316 310 308 304 302 306 302 305 300 283 261 252 248 245 247 243 246 245 240 246 247 247
321 323 326 325 326 327 332 335 338 336 336 335 335 335 335 333 333 333 336 333 329 321 316 308 301 297 298 304 303 303 310 275 255 253 251 244 246 246 245 243 245 249 246
323 325 326 327 327 329 333 336 339 337 338 337 336 338 339 338 336 335 334 333 328 325 322 315 305 300 297 295 297 298 300 305 274 253 253 252 246 244 245 245 242 248 249
326 328 327 325 326 330 333 335 338 338 338 337 338 339 338 339 339 338 335 333 334 331 325 317 311 305 302 298 294 293 297 295 300 271 250 255 248 250 245 249 247 251 253
324 324 325 326 330 332 335 336 337 338 338 336 336 337 337 338 339 339 337 336 334 331 330 326 316 306 302 300 300 297 292 293 288 291 269 258 258 241 249 247 244 251 253
325 328 329 326 331 336 336 334 337 337 336 335 335 336 337 338 339 340 338 336 333 329 326 323 321 317 308 297 294 294 295 293 287 283 285 270 267 246 248 253 250 247 246
329 332 328 328 335 335 334 335 336 335 334 336 336 336 337 338 339 339 340 337 335 331 326 322 317 314 311 308 301 293 288 287 287 284 278 275 274 266 253 248 239 235 238
Height
5873 5873 5876 5874 5870 5866 5862 5857 5853 5850 5847 5844 5842 5841 5838 5837 5836 5837 5836 5836 5836 5836 5837 5836 5834 5833 5831 5831 5830 5830 5829 5830 5831 5832 5833 5833 5835 5837 5838 5840 5842 5845 5847
5870 5871 5870 5867 5863 5860 5854 5849 5846 5843 5840 5836 5833 5831 5830 5829 5830 5829 5828 5827 5827 5827 5827 5827 5826 5826 5824 5823 5823 5822 5822 5823 5824 5825 5824 5826 5828 5829 5829 5832 5834 5837 5839
5865 5864 5862 5860 5856 5850 5844 5840 5837 5835 5833 5830 5827 5824 5821 5820 5821 5820 5820 5819 5818 5818 5816 5816 5816 5817 5816 5814 5814 5815 5814 5814 5815 5816 5817 5816 5819 5821 5822 5823 5826 5828 5830
5860 5859 5856 5851 5843 5837 5834 5831 5829 5826 5823 5821 5819 5816 5814 5812 5812 5812 5810 5810 5809 5808 5806 5806 5805 5804 5805 5804 5805 5805 5805 5805 5805 5806 5808 5809 5809 5812 5814 5815 5815 5819 5821
5853 5848 5842 5836 5834 5830 5827 5825 5822 5818 5815 5812 5810 5808 5806 5804 5803 5802 5801 5799 5798 5797 5796 5795 5794 5793 5792 5792 5792 5794 5793 5794 5795 5796 5798 5799 5801 5802 5805 5804 5807 5808 5812
5843 5838 5835 5832 5827 5823 5822 5817 5813 5809 5806 5804 5801 5799 5797 5795 5793 5792 5791 5789 5788 5787 5786 5784 5783 5782 5781 5780 5780 5781 5781 5783 5784 5786 5788 5789 5790 5791 5792 5795 5797 5798 5801
5839 5833 5827 5824 5821 5818 5813 5808 5805 5801 5798 5795 5793 5789 5787 5786 5783 5781 5780 5778 5776 5775 5773 5771 5770 5769 5768 5767 5767 5767 5769 5770 5771 5774 5777 5777 5778 5780 5782 5784 5786 5788 5790
5828 5824 5822 5819 5814 5809 5804 5800 5796 5792 5788 5785 5783 5780 5777 5775 5772 5770 5768 5766 5763 5761 5759 5758 5757 5755 5753 5753 5754 5755 5756 5756 5758 5760 5763 5764 5766 5766 5770 5772 5774 5776 5779
5823 5819 5815 5810 5805 5801 5797 5792 5788 5784 5780 5777 5773 5770 5767 5764 5761 5758 5756 5753 5749 5747 5745 5743 5742 5741 5740 5740 5741 5742 5742 5744 5744 5745 5748 5751 5753 5755 5757 5759 5762 5763 5767
5815 5810 5805 5802 5797 5792 5787 5783 5779 5775 5771 5768 5763 5759 5755 5752 5749 5745 5742 5739 5735 5732 5730 5728 5727 5727 5726 5725 5726 5727 5729 5729 5729 5731 5735 5738 5739 5741 5744 5747 5749 5751 5754
5807 5802 5798 5793 5788 5783 5779 5774 5770 5766 5762 5757 5754 5749 5745 5741 5736 5732 5729 5725 5722 5718 5716 5713 5712 5711 5711 5710 5711 5712 5713 5714 5715 5717 5720 5723 5725 5727 5731 5733 5736 5738 5741
5799 5795 5790 5785 5780 5775 5771 5767 5762 5758 5752 5747 5742 5737 5731 5726 5721 5717 5713 5709 5706 5703 5700 5697 5696 5695 5695 5695 5696 5697 5698 5699 5700 5702 5705 5708 5711 5713 5716 5719 5722 5726 5729
5792 5788 5783 5778 5773 5769 5764 5759 5754 5749 5743 5737 5731 5725 5719 5713 5706 5700 5694 5690 5687 5684 5683 5681 5678 5677 5677 5678 5678 5680 5682 5684 5685 5687 5689 5692 5695 5697 5700 5703 5708 5712 5716
5784 5780 5775 5771 5767 5762 5756 5750 5745 5738 5732 5726 5719 5713 5707 5701 5695 5688 5682 5675 5670 5666 5663 5662 5661 5660 5659 5660 5660 5662 5664 5667 5669 5672 5674 5677 5679 5682 5685 5687 5690 5695 5700
5777 5772 5768 5763 5759 5753 5747 5741 5735 5728 5722 5715 5708 5701 5694 5687 5681 5674 5668 5663 5657 5651 5647 5643 5642 5642 5641 5641 5642 5643 5646 5649 5652 5655 5658 5660 5663 5666 5670 5672 5676 5678 5683
5771 5766 5762 5757 5752 5746 5740 5733 5727 5720 5713 5706 5699 5691 5682 5674 5667 5661 5655 5648 5642 5638 5634 5630 5627 5625 5624 5623 5624 5625 5628 5631 5634 5637 5641 5643 5647 5650 5653 5656 5660 5663 5667
5765 5760 5756 5751 5745 5739 5733 5727 5720 5713 5706 5698 5690 5682 5674 5666 5657 5649 5642 5636 5631 5626 5622 5618 5615 5613 5611 5608 5608 5609 5611 5613 5616 5619 5622 5626 5630 5633 5636 5640 5643 5647 5651
5759 5755 5750 5745 5739 5733 5728 5721 5714 5708 5700 5691 5682 5675 5667 5659 5651 5642 5634 5627 5622 5616 5613 5610 5606 5603 5600 5598 5596 5595 5596 5597 5600 5603 5606 5610 5614 5616 5619 5622 5627 5631 5635
5754 5749 5743 5738 5732 5727 5721 5714 5707 5700 5692 5684 5676 5669 5661 5653 5645 5636 5628 5621 5616 5611 5606 5602 5599 5596 5592 5589 5587 5585 5583 5584 5586 5588 5592 5595 5599 5602 5605 5609 5612 5616 5620
5748 5743 5738 5732 5726 5721 5716 5710 5702 5695 5687 5680 5672 5664 5656 5647 5639 5631 5623 5615 5609 5604 5600 5595 5592 5588 5585 5582 5578 5575 5572 5571 5573 5575 5578 5581 5585 5588 5592 5596 5599 5603 5605
5742 5737 5732 5726 5721 5717 5711 5705 5697 5690 5683 5676 5667 5658 5650 5642 5634 5627 5619 5611 5604 5598 5593 5588 5584 5581 5578 5575 5571 5568 5564 5562 5562 5564 5566 5568 5572 5575 5579 5583 5586 5588 5592
5737 5732 5726 5721 5716 5711 5705 5699 5692 5685 5678 5670 5662 5653 5645 5636 5628 5621 5615 5607 5599 5593 5587 5582 5578 5574 5571 5568 5565 5561 5558 5555 5553 5554 5555 5557 5560 5563 5567 5570 5573 5576 5578
5731 5725 5720 5716 5711 5706 5700 5694 5687 5679 5671 5663 5656 5649 5640 5632 5624 5616 5608 5601 5594 5588 5582 5577 5572 5567 5563 5560 5557 5555 5552 5549 5547 5545 5545 5547 5548 5551 5554 5557 5560 5563 5565
5725 5721 5715 5710 5705 5700 5694 5688 5680 5673 5666 5659 5651 5644 5636 5628 5619 5611 5603 5595 5588 5582 5576 5571 5566 5562 5558 5554 5550 5547 5545 5543 5541 5539 5537 5538 5538 5540 5543 5545 5548 5551 5553
5720 5715 5710 5705 5700 5695 5689 5682 5675 5667 5660 5654 5646 5638 5631 5623 5615 5606 5598 5590 5583 5577 5570 5565 5560 5555 5550 5547 5543 5539 5537 5534 5532 5531 5529 5528 5528 5529 5531 5533 5535 5538 5540
5715 5709 5704 5700 5695 5690 5684 5677 5670 5663 5656 5648 5640 5633 5625 5618 5610 5602 5594 5586 5578 5571 5564 5557 5552 5547 5543 5539 5535 5531 5528 5526 5524 5522 5521 5520 5519 5519 5519 5520 5521 5524 5527